Погода в Карагайском

Россия / Челябинская область     54°07′07″N   59°30′47″E
темп.,
°C
ветер,
м/с
пор.,
м/с
влажн.,
%
обл.,
%
осадки,
мм/ч
давл.,
гПа
погр.,
м
15 апреля, чт
чт1523:00+8юз33675 0.0 103034
02:00+7зюз337330 0.0 102932
05:00+5юз33735 0.0 102929
08:00+7зюз24635 0.0 102881
11:00+13зюз34435 0.0 1026275
14:00+17юз343379 0.0 1024598
17:00+17юз453254 0.0 1023817
20:00+12ююз335028 0.0 102228
16 апреля, пт
пт1623:00+10юз33581 0.0 102219
02:00+8з22630 0.0 102110
05:00+7сз22660 0.0 102110
08:00+8с22663 0.0 102159
11:00+14всв23490 0.0 1020474
14:00+16всв44461 0.0 10201498
17:00+12св777116 0.1 1021583
20:00+8св698521 0.0 1023381
17 апреля, сб
сб1723:00+5св479483 0.0 1024334
02:00+6всв2394100 0.0 1023258
05:00+5всв2294100 0.0 1023156
08:00+6юв1291100 0.0 1023157
11:00+7вюв2284100 0.0 1023309
14:00+9вюв2277100 0.0 1022580
17:00+9вюв3377100 0.0 1022568
20:00+8вюв2385100 0.0 1021102
18 апреля, вс
вс1823:00+7ююв1189100 0.0 102034
02:00+6с019095 0.0 101810
05:00+5св239370 0.0 101895
08:00+5св367089 0.0 1018348
11:00+8с44505 0.0 1016987
14:00+10с563893 0.0 10152035
17:00+7с995194 0.0 10171503
20:000св81272100 0.6 10221009
19 апреля, пн
пн1923:00−2св8127111 0.6 10251191
02:00−3св710535 0.0 10281261
05:00−5св610515 0.0 10311276
08:00−5св810417 0.0 10331369
11:00−3св810315 0.0 10341588
14:00−1ссв792875 0.0 10332065
17:00+1св7927100 0.0 10332376
20:00−2св364276 0.0 1034143